Theta_e
312 312 312 313 313 316 317 318 321 319 320 321 320 319 318 318 315 311 309 309 312 314 316 318 320 322 323 324 324 325 325 324 323 323 324 323 323 323 322 321 320 319 319 319
310 311 311 310 310 312 314 318 318 318 318 319 320 320 319 317 313 309 306 305 306 310 313 315 316 319 319 320 320 322 323 324 323 322 322 324 323 323 323 323 322 321 321 320
308 307 308 310 313 309 313 317 317 318 318 320 321 320 317 314 310 306 303 302 301 305 309 313 313 312 315 316 317 318 319 320 322 322 321 322 322 322 322 322 323 323 323 322
307 307 308 309 305 314 314 316 316 318 319 319 313 309 309 309 306 303 302 305 305 304 306 308 308 309 310 311 313 315 317 317 317 317 318 319 320 321 321 321 321 321 321 323
305 307 305 305 313 315 317 320 318 318 317 310 306 305 303 303 302 301 300 301 304 305 305 307 307 307 308 308 309 309 309 310 311 312 314 315 316 317 317 318 320 321 321 321
306 307 306 309 308 312 313 319 316 318 314 311 312 311 305 300 299 299 300 301 303 303 303 305 305 305 306 307 307 308 308 307 308 308 309 309 310 311 312 313 314 315 318 319
305 305 305 306 306 310 312 318 315 317 313 313 311 307 300 298 297 298 298 299 300 300 300 300 301 302 304 304 304 303 304 305 306 306 307 306 306 308 308 309 309 308 308 308
304 307 306 309 312 312 311 312 310 310 307 301 299 298 296 295 295 296 298 298 298 299 299 301 302 302 302 303 300 301 301 302 303 303 302 302 304 305 306 305 304 302 301 302
305 305 307 306 308 308 310 308 305 304 302 300 298 296 298 295 295 294 295 296 296 296 296 296 296 298 298 297 298 299 300 301 301 301 301 301 301 301 301 300 300 299 298 297
308 307 305 304 302 302 303 305 304 306 307 305 299 294 292 292 291 291 291 291 292 292 292 292 293 294 294 295 296 297 298 297 297 298 297 297 297 295 295 294 294 293 293 292
307 306 303 301 300 299 299 297 300 299 298 297 297 294 293 290 289 289 290 291 291 291 290 291 291 291 292 293 293 294 294 294 294 294 294 293 293 292 291 290 290 290 289 289
306 304 304 300 298 300 300 297 294 296 294 293 294 292 289 287 288 288 288 288 289 289 289 289 289 290 290 291 291 291 291 291 290 290 290 290 290 289 288 288 288 288 288 288
299 297 297 295 295 295 296 295 294 294 292 290 288 288 287 286 286 286 287 287 287 287 287 287 288 288 287 288 289 290 289 289 288 288 288 288 288 288 288 287 287 288 287 286
297 299 296 295 291 292 293 292 291 289 286 285 285 286 287 287 285 286 286 285 285 285 286 286 286 286 285 286 286 287 287 287 287 286 286 286 286 285 285 285 285 285 284 284
295 296 294 292 292 290 291 291 290 287 286 286 286 286 285 285 285 284 284 284 284 285 285 285 285 285 285 285 286 286 286 285 285 285 285 284 284 283 283 283 282 282 281 281
294 294 294 294 292 291 290 289 288 284 285 284 284 284 284 283 283 283 283 283 285 285 284 283 283 282 282 282 282 283 283 283 283 283 282 282 282 281 281 280 280 279 278 277
293 292 292 291 289 288 288 286 286 284 283 283 283 283 283 283 283 283 283 282 282 282 280 279 278 278 278 278 279 279 279 280 280 280 279 279 278 278 277 276 276 275 275 274
291 291 291 290 289 288 286 285 285 284 284 283 282 282 282 282 283 282 281 279 277 277 277 277 277 277 277 277 277 277 277 277 277 277 277 276 276 275 275 275 274 274 273 272
288 288 288 287 286 286 285 284 284 283 283 282 282 282 282 282 280 278 277 276 276 276 276 276 276 276 276 276 276 276 276 276 276 275 275 274 274 274 273 273 273 272 272 271
286 286 285 285 284 284 284 283 283 283 282 282 282 282 281 278 276 276 275 275 276 275 275 274 275 275 275 275 275 275 274 274 274 274 273 273 273 272 272 272 271 271 270 270
284 284 284 283 282 282 282 282 282 282 281 281 279 278 277 277 277 276 275 274 274 274 273 273 273 274 274 274 273 273 273 273 273 272 272 272 271 271 270 270 269 269 269 268
281 282 282 282 282 282 282 282 282 281 280 279 278 277 276 276 275 275 274 273 273 273 272 272 272 272 272 272 272 272 272 271 271 271 271 270 270 269 269 269 268 268 268 268
281 281 281 281 281 281 279 279 278 278 277 276 276 276 275 275 274 273 272 272 272 271 271 271 271 271 271 271 271 271 270 270 270 270 270 269 269 268 268 268 267 267 267 267
281 281 280 279 279 278 277 276 276 275 275 275 275 274 274 273 273 273 272 271 271 271 270 270 269 269 270 270 270 269 269 269 269 269 269 268 268 267 267 267 267 267 266 266
280 280 279 278 278 277 277 277 277 276 276 275 275 274 273 272 272 271 271 270 270 270 269 269 269 268 269 269 268 268 268 268 267 267 267 267 267 267 266 266 266 266 265 265
280 280 280 279 279 278 277 277 277 276 276 275 274 274 273 272 271 270 270 270 269 269 268 268 268 268 268 268 267 267 267 267 267 267 266 266 266 266 265 265 265 265 264 264
280 279 279 278 277 277 276 276 276 276 275 274 273 273 272 271 271 270 270 269 269 269 268 268 268 267 267 267 267 267 267 267 266 266 266 265 265 265 265 265 265 264 264 264
Wind_Speed
6 8 6 10 14 12 12 9 5 3 7 7 9 8 8 12 15 22 26 30 30 29 28 26 23 18 12 7 7 10 10 9 11 15 18 21 23 24 24 26 28 28 33 37
4 7 8 13 13 14 13 13 8 10 19 2 7 15 12 8 14 18 20 19 24 26 26 24 21 17 13 11 10 6 5 11 15 17 18 19 20 22 26 30 31 32 35 36
3 5 9 7 2 9 10 10 8 8 9 6 7 5 18 17 17 12 11 18 20 24 26 24 22 16 15 12 8 6 6 5 6 9 10 14 20 23 25 28 29 34 37 38
3 4 4 5 16 5 8 12 12 8 6 5 16 21 17 15 21 14 14 21 19 21 22 20 17 17 14 12 10 8 6 4 1 2 4 7 11 15 21 25 29 32 35 35
2 2 9 12 3 7 8 4 3 4 13 21 29 27 19 16 17 15 14 15 17 18 17 16 16 15 13 11 11 9 9 8 7 5 5 4 5 10 12 14 19 27 31 32
2 1 4 4 10 5 5 5 4 4 17 18 18 6 2 10 11 14 16 17 16 16 14 14 15 13 12 12 12 12 13 12 12 10 9 8 8 9 9 9 11 12 19 26
3 4 7 9 12 17 1 2 11 8 28 18 4 8 23 16 14 13 13 15 13 13 14 15 13 13 14 14 16 16 15 13 12 12 12 11 10 9 10 9 9 6 6 9
2 3 9 8 11 4 2 10 15 13 21 31 31 25 18 14 13 11 12 12 11 11 12 12 11 11 13 14 16 15 15 14 14 15 15 14 12 10 8 8 7 7 7 8
5 4 4 10 12 16 6 20 23 19 22 24 30 21 18 14 12 10 11 11 10 11 12 12 11 12 13 14 12 13 12 14 15 15 15 15 13 13 13 12 12 13 14 15
1 6 7 12 18 21 18 20 22 24 21 14 19 16 17 14 12 11 11 12 11 12 15 15 14 13 14 11 10 10 10 12 14 16 16 17 18 19 20 20 20 19 20 21
5 6 13 15 16 17 16 18 21 18 17 17 16 15 13 13 11 10 11 12 13 15 16 16 13 13 12 12 9 10 12 14 16 17 19 20 21 22 21 22 19 20 20 19
2 3 12 10 12 13 16 18 14 16 17 14 12 14 13 15 13 14 15 15 16 17 16 17 16 15 14 12 12 12 15 16 17 17 18 19 19 19 18 17 16 16 16 15
1 16 23 18 15 13 17 16 11 12 13 14 14 13 14 18 18 18 17 17 17 17 16 15 15 16 16 14 12 13 15 15 15 14 14 14 14 13 13 12 9 11 11 11
8 3 13 9 13 13 15 15 12 13 14 14 13 12 14 17 16 17 18 17 15 14 14 13 12 13 12 10 9 10 11 11 10 10 10 10 10 10 9 8 8 9 9 8
14 13 15 15 13 14 12 10 9 11 11 12 11 12 13 16 16 16 15 13 12 11 12 10 10 11 11 9 7 8 8 9 8 8 7 7 7 7 7 8 8 9 7 6
5 8 8 7 8 8 7 7 9 12 12 13 12 12 13 14 15 14 12 10 7 9 10 8 8 9 7 6 6 6 7 7 7 7 6 6 6 6 7 7 7 8 9 10
4 4 5 8 8 8 8 7 8 11 12 11 12 12 11 12 13 12 11 9 7 7 6 5 7 7 6 6 6 7 6 6 6 5 5 5 6 6 7 8 10 10 12 12
2 3 3 3 4 4 6 6 7 8 9 9 9 9 10 9 10 9 7 6 5 4 4 6 7 7 7 7 7 7 7 6 5 6 6 6 7 7 8 9 10 11 11 11
4 6 6 6 5 5 6 6 7 7 8 7 8 8 7 6 6 5 5 2 2 3 4 5 6 7 7 6 7 7 6 6 6 5 6 6 6 7 7 7 7 8 8 9
5 5 4 5 5 4 7 8 9 9 8 7 6 5 5 6 6 5 4 4 4 3 4 5 6 6 7 7 6 6 6 6 5 5 5 5 6 6 7 7 7 8 9 9
5 5 7 10 13 13 12 12 10 9 8 6 3 2 3 3 4 4 5 5 4 3 3 4 5 6 6 6 6 6 5 5 5 5 5 6 6 7 7 8 8 9 10 11
13 13 14 14 13 14 12 9 8 6 5 3 2 2 3 5 6 6 6 4 4 3 3 4 5 6 6 5 5 6 5 5 6 6 7 7 7 7 7 8 8 9 10 11
14 14 14 12 12 11 10 7 5 3 1 1 3 4 5 5 5 5 5 4 3 4 4 5 5 6 6 6 6 7 6 7 7 7 8 8 8 9 9 9 10 10 11 11
14 12 11 10 8 7 5 5 4 4 3 3 4 5 5 6 7 7 5 3 2 3 3 4 5 6 7 6 6 6 7 8 8 9 10 10 9 11 12 12 12 12 12 11
11 10 9 8 6 4 3 2 2 2 1 3 5 7 8 8 6 4 3 2 3 4 5 4 5 6 7 6 7 7 7 8 8 8 9 10 9 10 11 12 13 13 14 13
6 4 3 2 1 2 3 4 4 5 5 5 5 6 7 8 7 5 5 5 6 5 6 6 7 8 9 9 8 9 11 12 11 11 12 12 11 12 12 12 13 14 14 14
3 2 1 1 3 4 4 5 7 7 8 9 9 8 7 7 8 7 6 7 8 7 8 9 9 10 9 9 11 11 15 15 13 12 13 15 14 14 15 14 14 13 14 15
Wind_Direction
292 291 276 269 270 266 226 232 244 301 248 204 186 200 278 356 36 49 51 61 78 87 95 101 107 112 123 152 197 235 242 247 266 273 271 269 266 267 267 260 258 253 252 251
288 306 332 302 277 253 251 225 248 273 270 264 180 171 142 85 48 46 51 53 71 77 83 87 90 95 106 121 126 128 163 221 237 251 254 259 270 274 274 272 269 266 261 257
270 328 318 293 224 292 269 194 216 248 244 183 123 65 135 122 98 81 77 68 61 71 78 81 80 79 89 97 96 111 125 151 212 235 241 246 253 257 259 267 272 272 271 270
246 328 257 236 323 314 276 231 216 212 161 210 112 94 65 87 105 88 69 71 66 71 76 82 82 77 74 72 72 81 86 77 68 247 254 250 254 257 253 255 255 261 270 274
197 213 292 299 17 18 347 326 21 162 119 124 109 89 63 73 90 97 87 84 75 69 69 71 69 63 59 58 55 54 48 41 32 14 353 328 292 269 270 269 260 255 251 251
175 225 259 254 1 336 359 275 201 236 147 151 153 109 122 102 98 95 89 83 80 78 76 76 71 66 60 55 47 43 34 27 22 21 16 1 346 332 338 319 300 287 265 254
196 232 274 280 316 323 45 312 323 202 161 167 118 113 141 135 112 98 89 83 79 82 79 78 78 69 62 55 49 43 37 31 25 22 21 20 13 358 353 351 357 345 300 272
168 200 255 3 315 228 180 61 69 99 124 109 110 110 114 110 99 93 85 84 79 76 73 73 74 73 66 61 54 47 44 46 48 46 47 47 41 35 34 36 34 40 37 31
195 228 23 33 52 36 66 100 95 93 97 111 119 121 119 115 104 94 89 87 83 79 82 78 74 76 74 65 60 56 50 54 58 58 58 60 63 63 64 66 70 70 64 61
317 31 65 64 71 71 50 99 108 117 128 129 115 117 114 111 107 104 100 91 87 85 79 75 69 70 77 78 75 68 64 66 68 70 71 73 76 77 76 73 75 76 77 76
304 147 96 52 62 78 68 71 97 103 106 115 120 113 114 108 108 102 98 95 91 85 80 77 75 75 75 77 73 75 81 79 77 78 78 79 79 79 79 80 80 81 80 80
284 33 106 91 92 96 94 74 72 94 98 100 117 122 123 114 109 107 101 96 95 91 89 87 82 77 74 74 81 85 86 83 80 79 80 81 84 88 88 91 89 85 81 71
38 77 102 100 87 91 99 89 89 96 100 111 108 115 114 110 110 111 106 102 98 95 91 85 83 83 77 75 79 84 89 90 89 88 86 84 83 83 85 85 80 86 81 74
355 292 64 68 96 88 90 91 91 100 108 108 115 112 113 113 116 112 106 103 104 104 98 91 89 85 78 69 63 70 78 80 78 80 78 76 74 75 75 73 68 66 61 50
38 60 101 107 97 86 86 96 94 88 97 102 106 111 121 125 123 115 112 113 109 99 89 81 73 70 64 55 49 57 61 63 59 62 65 63 60 55 51 49 48 51 51 39
86 91 103 87 82 83 81 86 104 108 107 112 120 120 121 124 122 119 115 107 105 91 84 75 68 62 50 40 35 39 46 58 53 48 53 57 58 49 42 37 33 28 27 30
116 84 85 87 94 91 85 92 96 104 108 113 113 116 122 123 118 112 104 94 81 78 73 64 54 40 25 22 19 24 27 32 36 34 36 39 40 38 32 21 23 25 30 33
72 181 173 135 107 95 108 115 108 100 105 108 110 115 118 120 110 106 97 81 61 50 48 40 30 16 12 20 23 24 23 25 26 29 33 28 28 31 31 28 27 24 26 26
130 135 134 128 120 136 143 135 120 113 114 115 125 129 124 104 83 69 61 29 331 356 22 24 17 7 4 14 22 21 25 28 32 38 35 34 27 29 27 25 22 15 11 7
116 111 107 101 116 130 136 128 126 125 119 117 123 112 99 88 71 45 26 354 347 352 13 5 7 7 14 15 20 15 14 15 23 27 25 21 12 9 9 6 0 354 351 350
113 123 120 120 117 113 110 110 119 122 117 115 92 66 43 32 35 24 8 347 342 350 5 1 355 358 2 6 9 6 4 1 358 358 357 356 355 348 342 338 335 330 329 332
122 120 120 121 120 118 117 120 123 125 126 118 96 18 4 354 355 350 338 324 326 319 327 328 331 337 341 345 343 347 347 344 342 345 342 339 334 331 328 323 318 317 318 319
119 116 115 116 116 118 121 124 122 113 108 77 17 19 11 353 344 344 335 318 319 306 301 307 316 330 337 332 328 331 332 325 318 313 312 314 316 319 321 323 317 317 317 315
119 116 113 114 114 116 123 121 114 103 88 64 37 15 345 331 319 318 320 287 286 323 325 308 300 311 319 321 319 322 327 324 317 316 314 314 310 306 309 312 313 311 311 311
121 114 107 102 98 109 114 100 104 121 74 22 10 4 2 352 335 330 327 333 325 336 344 344 336 341 344 334 328 329 333 332 328 327 324 322 315 307 306 308 313 315 314 312
137 158 178 194 258 301 298 290 286 280 281 300 316 330 342 352 357 353 345 340 346 339 341 356 352 334 337 346 344 340 337 332 324 323 325 324 320 317 317 316 315 313 309 309
159 146 151 296 317 320 308 272 264 272 268 269 294 313 322 336 344 339 332 335 337 334 331 325 329 332 331 325 325 329 333 324 316 314 313 313 310 310 314 315 312 309 306 306